Regional Weather Roundup
Issued by NWS

Home | Current Version | Previous Version | Graphics & Text | Print | Product List | Glossary On
Versions: 1 2 3 4 5 6 7 8 9 10 11 12 13 14 15 16 17 18 19 20 21 22 23 24 25 26 27 28 29 30 31 32 33 34 35 36 37 38 39 40 41 42 43 44 45 46 47 48 49 50
000
ASUS43 KLSX 280157
RWRMO

WEATHER SUMMARY FOR MISSOURI
NATIONAL WEATHER SERVICE SPRINGFIELD MO
900 PM CDT MON MAR 27 2017

NOTE: "FAIR" INDICATES FEW OR NO CLOUDS BELOW 12,000 FEET WITH NO
       SIGNIFICANT WEATHER AND/OR OBSTRUCTIONS TO VISIBILITY.
       CURRENT SKY AND/OR WEATHER CONDITIONS ARE NOT AVAILABLE FOR
       CHILLICOTHE AND FARMINGTON.

MOZ001>031-035>038-043-044-053-054-280300-
...NORTHERN AND WESTERN MISSOURI...

CITY           SKY/WX    TMP DP  RH WIND       PRES   REMARKS
KANSAS CTY INT CLOUDY    51  46  83 NE5       29.96R
LEE`S SUMMIT   CLOUDY    51  46  83 N7        29.97R
ST JOSEPH      CLOUDY    50  44  80 N7        29.97R
CHILLICOTHE      N/A     51  47  86 N7        29.98R

$$
MOZ066>068-077>081-088>096-101>105-280300-
...SOUTHWEST MISSOURI...

CITY           SKY/WX    TMP DP  RH WIND       PRES   REMARKS
SPRINGFIELD    CLOUDY    52  50  93 N7        29.94R
JOPLIN         CLOUDY    52  49  89 NE3       29.96R
BRANSON        MOCLDY    54  50  87 NW7       29.94R

$$
MOZ032>034-039>042-045>050-055>058-069>072-280300-
...CENTRAL MISSOURI...

CITY           SKY/WX    TMP DP  RH WIND       PRES   REMARKS
COLUMBIA       NOT AVBL
JEFFERSON CITY LGT RAIN  56  53  90 W3        29.94R FOG
ROLLA          CLOUDY    53  53 100 W6        29.92R FOG
SEDALIA        CLOUDY    52  49  89 NW5       29.97R
WARRENSBURG    CLOUDY    50  46  87 CALM      29.97R
OSAGE BEACH    CLOUDY   N/A N/A N/A W3        29.96R

$$
MOZ051-052-059>065-280300-
...EAST CENTRAL MISSOURI...

CITY           SKY/WX    TMP DP  RH WIND       PRES   REMARKS
ST LOUIS INTL  MOCLDY    56  52  86 N7        29.90R

$$
MOZ072>076-082>087-097>100-106>115-280300-
...SOUTH CENTRAL AND SOUTHEAST MISSOURI...

CITY           SKY/WX    TMP DP  RH WIND       PRES   REMARKS
CAPE GIRARDEAU MOCLDY    59  55  87 N6        29.87R
POPLAR BLUFF   CLEAR     59  57  93 CALM      29.86R
WEST PLAINS    PTCLDY    56  51  84 W6        29.92R

$$


USA.gov is the U.S. government's official web portal to all federal, state and local government web resources and services.